Location: Silent Lake
(44.9206°N, 78.0708°W)
Time: 08:12:16
(UTC-04:00)

Cosmos 614 Rocket - Pass Details

Date: 19 April 2018
Orbit: 733 x 764 km, 74.1° (Epoch: 20 September)

Event Time Altitude Azimuth Distance (km) Brightness Sun altitude
Rises 22:49:09 0° 339° (NNW) 3,239 8.4 -25.1°
Reaches altitude 10° 22:51:33 10° 341° (NNW) 2,307 7.4 -25.4°
Maximum altitude 22:56:48 81° 68° (ENE) 775 3.9 -25.9°
Enters shadow 22:56:52 81° 85° (E) 776 3.8 -25.9°
